This demonstration page uses our WeatherBlox Daily Observations layout. Learn more.

Left ArrowRight Arrow

36.17497, -115.13722

Hourly Observations for September 2, 2016

Temp ( °F °C ) Dew Point ( °F °C ) Humidity (%) Winds ( mph kmh ) Pressure ( in mb ) Visibility ( mi km ) Precip ( " mm )
12:53 am 00:53 Clear 87 30.6 55 12.8 34 34 SSE 8 13 29.81 1009 10 16.0934 0 0
1:53 am 01:53 Clear 85 29.4 55 12.8 36 36 SE 6 9 29.81 1009 10 16.0934 0 0
2:53 am 02:53 Clear 85 29.4 46 7.8 26 26 S 5 7 29.81 1009 10 16.0934 0 0
3:53 am 03:53 Clear 84 28.9 40 4.4 21 21 SE 8 13 29.81 1009 10 16.0934 0 0
4:53 am 04:53 Clear 81 27.2 53 11.7 38 38 ESE 7 11 29.82 1010 10 16.0934 0 0
5:53 am 05:53 Clear 82 27.8 38 3.3 21 21 SE 6 9 29.83 1010 10 16.0934 0 0
6:53 am 06:53 Sunny 82 27.8 38 3.3 21 21 VRB 5 7 29.85 1011 10 16.0934 0 0
7:53 am 07:53 Sunny 83 28.3 37 2.8 19 19 SE 6 9 29.85 1011 10 16.0934 0 0
8:53 am 08:53 Sunny 87 30.6 35 1.7 16 16 SE 8 13 29.87 1011 10 16.0934 0 0
9:53 am 09:53 Sunny 90 32.2 39 3.9 17 17 ESE 8 13 29.87 1011 10 16.0934 0 0
10:53 am 10:53 Sunny 93 33.9 45 7.2 19 19 SSE 9 15 29.85 1011 10 16.0934 0 0
11:53 am 11:53 Sunny 98 36.7 45 7.2 16 16 S 14 22 29.81 1010 10 16.0934 0 0
12:53 pm 12:53 Sunny 99 37.2 44 6.7 15 15 SW 17 28 29.79 1009 10 16.0934 0 0
1:53 pm 13:53 Sunny 98 36.7 42 5.6 15 15 VRB 6 9 29.75 1008 10 16.0934 0 0
2:53 pm 14:53 Sunny 100 38 39 4 12 12 SW 17 28 29.56 1001 10 16.0934 0 0
3:53 pm 15:53 Sunny 101 38.3 37 2.8 11 11 SW 15 24 29.7 1006 10 16.0934 0 0
4:53 pm 16:53 Sunny 101 38.3 39 3.9 12 12 SW 16 26 29.69 1005 10 16.0934 0 0
5:53 pm 17:53 Sunny 99 37.2 32 0 9 9 W 16 26 29.68 1005 10 16.0934 0 0
6:53 pm 18:53 Sunny 97 36.1 30 -1.1 9 9 WSW 14 22 29.68 1005 10 16.0934 0 0
7:53 pm 19:53 Clear 95 35 32 0 11 11 WNW 6 9 29.7 1006 10 16.0934 0 0
8:53 pm 20:53 Clear 92 33.3 33 0.6 12 12 Calm 29.7 1006 10 16.0934 0 0
9:53 pm 21:53 Mostly Clear 91 32.8 36 2.2 14 14 SSW 5 7 29.71 1006 10 16.0934 0 0
10:53 pm 22:53 Clear 88 31.1 37 2.8 16 16 Calm 29.71 1006 10 16.0934 0 0
11:53 pm 23:53 Clear 89 31.7 26 -3.3 10 10 SW 9 15 29.71 1006 10 16.0934 0 0

Powered by AerisWeather